CW0845 Weather Reports


time (UTC)temp
C
wind
direction
speed
KPH
gust
KPH
rain 1hr
cm
rain 24hr
cm
rain mn
cm
humidity
%
barometer
mb
20260506185007 15 186 12.9 22.5 0.05 0.15 0.15 89 1007.0
20260506184517 15 186 9.7 25.7 0.05 0.15 0.15 89 1007.0
20260506184008 15 200 9.7 25.7 0.05 0.15 0.15 89 1007.1
20260506183510 16 210 9.7 20.9 0.03 0.13 0.13 88 1007.0
20260506183022 16 197 8.0 20.9 0.05 0.13 0.13 88 1007.0
20260506182507 16 171 3.2 19.3 0.08 0.13 0.13 88 1007.0
20260506182016 16 236 6.4 24.1 0.08 0.13 0.13 87 1007.2
20260506181526 16 222 9.7 25.7 0.10 0.13 0.13 87 1007.2
20260506181010 16 205 11.3 25.7 0.13 0.13 0.13 87 1007.0
20260506180509 16 188 11.3 25.7 0.13 0.13 0.13 86 1007.0
20260506180028 16 187 12.9 25.7 0.13 0.13 0.13 86 1006.7
20260506175511 16 201 11.3 22.5 0.13 0.13 0.13 86 1006.8
20260506175008 16 188 11.3 22.5 0.10 0.10 0.10 86 1007.0
20260506174516 16 182 8.0 16.1 0.10 0.10 0.10 86 1007.1
20260506174007 16 194 6.4 17.7 0.10 0.10 0.10 86 1007.0
20260506173507 16 194 6.4 17.7 0.10 0.10 0.10 85 1007.2
20260506173021 17 191 6.4 19.3 0.08 0.08 0.08 84 1007.3
20260506172509 17 103 8.0 24.1 0.05 0.05 0.05 83 1007.5
20260506172011 17 198 6.4 24.1 0.05 0.05 0.05 81 1007.7
20260506171535 18 150 6.4 20.9 0.03 0.03 0.03 79 1007.6
20260506171008 18 169 9.7 20.9 0.00 0.00 0.00 77 1007.9
20260506170512 18 227 9.7 20.9 0.00 0.00 0.00 76 1007.9
20260506170027 18 175 9.7 16.1 0.00 0.00 0.00 76 1007.7
20260506165508 19 196 8.0 20.9 0.00 0.00 0.00 74 1007.7
20260506165010 19 219 11.3 20.9 0.00 0.00 0.00 73 1007.7
20260506164527 19 162 8.0 17.7 0.00 0.00 0.00 72 1007.7
20260506164016 19 203 6.4 14.5 0.00 0.00 0.00 72 1007.6
20260506163513 20 195 8.0 20.9 0.00 0.00 0.00 72 1007.7
20260506163030 20 217 6.4 20.9 0.00 0.00 0.00 71 1007.7
20260506162506 20 155 9.7 20.9 0.00 0.00 0.00 70 1007.6
20260506162012 20 164 6.4 22.5 0.00 0.00 0.00 69 1007.7
20260506161524 20 180 9.7 22.5 0.00 0.00 0.00 69 1007.8
20260506161011 20 143 8.0 16.1 0.00 0.00 0.00 70 1007.9
20260506160512 20 189 6.4 17.7 0.00 0.00 0.00 70 1008.0
20260506160030 19 162 6.4 17.7 0.00 0.00 0.00 71 1008.1
20260506155509 19 159 6.4 17.7 0.00 0.00 0.00 71 1008.1
20260506155013 19 217 6.4 17.7 0.00 0.00 0.00 71 1008.3
20260506154536 18 197 11.3 16.1 0.00 0.00 0.00 72 1008.4
20260506154019 18 173 4.8 20.9 0.00 0.00 0.00 73 1008.5
20260506153511 18 156 6.4 22.5 0.00 0.00 0.00 72 1008.5
20260506153027 18 150 9.7 22.5 0.00 0.00 0.00 73 1008.6
20260506152510 18 173 8.0 12.9 0.00 0.00 0.00 73 1008.7
20260506152011 18 155 4.8 17.7 0.00 0.00 0.00 74 1008.7
20260506151523 18 222 8.0 16.1 0.00 0.00 0.00 73 1008.8
20260506151010 18 211 8.0 19.3 0.00 0.00 0.00 74 1008.8
20260506150510 18 183 9.7 19.3 0.00 0.00 0.00 74 1008.8
20260506150026 18 184 8.0 19.3 0.00 0.00 0.00 75 1009.0
20260506145507 17 165 9.7 16.1 0.00 0.00 0.00 75 1009.0
20260506145009 17 197 9.7 16.1 0.00 0.00 0.00 75 1009.0
20260506144527 17 164 6.4 16.1 0.00 0.00 0.00 75 1008.9
20260506144012 17 200 4.8 27.4 0.00 0.00 0.00 75 1009.0
20260506143511 17 178 11.3 27.4 0.00 0.00 0.00 75 1009.0
20260506143028 17 222 11.3 22.5 0.00 0.00 0.00 75 1009.0
20260506142511 17 182 11.3 22.5 0.00 0.00 0.00 75 1009.0
20260506142012 17 203 11.3 20.9 0.00 0.00 0.00 75 1009.0
20260506141528 17 143 12.9 20.9 0.00 0.00 0.00 75 1008.9
20260506140511 17 173 9.7 22.5 0.00 0.00 0.00 76 1008.9
20260506140024 17 179 9.7 25.7 0.00 0.00 0.00 76 1009.0
20260506135507 17 212 14.5 40.2 0.00 0.00 0.00 76 1008.9
20260506135009 17 191 9.7 40.2 0.00 0.00 0.00 76 1008.7
20260506134524 17 208 9.7 25.7 0.00 0.00 0.00 77 1008.7
20260506134013 17 192 9.7 25.7 0.00 0.00 0.00 78 1008.7
20260506133511 16 184 11.3 22.5 0.00 0.00 0.00 77 1008.8
20260506133024 16 155 12.9 22.5 0.00 0.00 0.00 77 1008.8
20260506132510 16 167 6.4 19.3 0.00 0.00 0.00 78 1008.8
20260506132015 16 105 6.4 24.1 0.00 0.00 0.00 78 1008.7
20260506131526 16 209 11.3 24.1 0.00 0.00 0.00 78 1008.8
20260506131010 16 205 9.7 17.7 0.00 0.00 0.00 78 1008.9
20260506130520 16 159 9.7 17.7 0.00 0.00 0.00 78 1008.9
20260506130024 16 171 6.4 20.9 0.00 0.00 0.00 78 1008.9
20260506125507 16 168 9.7 20.9 0.00 0.00 0.00 79 1008.9
20260506125010 16 180 6.4 19.3 0.00 0.00 0.00 79 1008.9
20260506124524 16 169 8.0 19.3 0.00 0.00 0.00 80 1009.1
20260506124010 16 198 9.7 16.1 0.00 0.00 0.00 79 1009.3
20260506123511 16 169 8.0 17.7 0.00 0.00 0.00 80 1009.2
20260506123027 16 209 8.0 17.7 0.00 0.00 0.00 80 1009.4
20260506122511 15 212 8.0 16.1 0.00 0.00 0.00 80 1009.4
20260506122010 15 205 4.8 22.5 0.00 0.00 0.00 80 1009.4
20260506121528 15 237 8.0 22.5 0.00 0.00 0.00 81 1009.4
20260506121011 15 202 6.4 12.9 0.00 0.00 0.00 81 1009.4
20260506120514 15 213 6.4 25.7 0.00 0.00 0.00 81 1009.3
20260506120032 15 229 6.4 25.7 0.00 0.00 0.00 81 1009.4
20260506115510 15 167 11.3 22.5 0.00 0.00 0.00 81 1009.5
20260506115013 15 243 9.7 20.9 0.00 0.00 0.00 81 1009.3
20260506114526 15 190 11.3 19.3 0.00 0.00 0.00 82 1009.3
20260506114009 15 252 6.4 16.1 0.00 0.00 0.00 82 1009.3
20260506113511 15 173 8.0 19.3 0.00 0.00 0.00 82 1009.3
20260506113028 15 173 6.4 19.3 0.00 0.00 0.00 82 1009.5
20260506112510 15 217 8.0 20.9 0.00 0.00 0.00 82 1009.4
20260506112010 15 205 8.0 20.9 0.00 0.00 0.00 82 1009.4
20260506111529 15 217 6.4 17.7 0.00 0.00 0.00 82 1009.4
20260506111010 15 205 6.4 19.3 0.00 0.00 0.00 82 1009.4
20260506110507 14 137 6.4 19.3 0.00 0.00 0.00 83 1009.4
20260506110028 14 207 6.4 17.7 0.00 0.00 0.00 83 1009.7
20260506105512 14 173 11.3 19.3 0.00 0.00 0.00 84 1009.7
20260506105011 13 173 8.0 19.3 0.00 0.00 0.00 84 1009.7
20260506104528 13 209 8.0 17.7 0.00 0.00 0.00 84 1009.7
20260506104010 13 186 8.0 19.3 0.00 0.00 0.00 84 1009.7
20260506103508 13 178 6.4 19.3 0.00 0.00 0.00 84 1009.8
20260506103028 13 204 9.7 16.1 0.00 0.00 0.00 84 1009.7
20260506102510 13 204 9.7 16.1 0.00 0.00 0.00 84 1009.6
20260506102012 13 184 9.7 16.1 0.00 0.00 0.00 84 1009.5
20260506101528 13 193 6.4 12.9 0.00 0.00 0.00 84 1009.3
20260506101015 13 158 6.4 17.7 0.00 0.00 0.00 84 1009.4
20260506100508 13 211 8.0 17.7 0.00 0.00 0.00 84 1009.5
20260506100026 13 198 8.0 16.1 0.00 0.00 0.00 84 1009.5
20260506095506 13 221 4.8 14.5 0.00 0.00 0.00 84 1009.4
20260506095011 13 208 8.0 17.7 0.00 0.00 0.00 83 1009.5
20260506094520 13 217 8.0 17.7 0.00 0.00 0.00 84 1009.3
20260506094003 13 195 6.4 12.9 0.00 0.00 0.00 83 1009.4
20260506093504 13 188 4.8 12.9 0.00 0.00 0.00 83 1009.5
20260506093012 13 223 1.6 12.9 0.00 0.00 0.00 83 1009.6
20260506092505 13 238 4.8 16.1 0.00 0.00 0.00 83 1009.5
20260506092007 13 188 4.8 16.1 0.00 0.00 0.00 82 1009.5
20260506091508 13 178 4.8 14.5 0.00 0.00 0.00 82 1009.4
20260506091008 13 193 4.8 17.7 0.00 0.00 0.00 82 1009.4
20260506090506 14 211 6.4 17.7 0.00 0.00 0.00 82 1009.4
20260506090016 14 183 4.8 16.1 0.00 0.00 0.00 81 1009.5
20260506085506 14 192 6.4 17.7 0.00 0.00 0.00 81 1009.4
20260506085007 14 167 6.4 17.7 0.00 0.00 0.00 81 1009.4
20260506084520 14 190 4.8 14.5 0.00 0.00 0.00 81 1009.4
20260506083509 14 213 8.0 14.5 0.00 0.00 0.00 80 1009.6
20260506082508 15 204 4.8 19.3 0.00 0.00 0.00 79 1009.5
20260506082007 15 200 4.8 16.1 0.00 0.00 0.00 79 1009.6
20260506081508 15 175 6.4 17.7 0.00 0.00 0.00 79 1009.5
20260506081011 15 201 9.7 20.9 0.00 0.00 0.00 79 1009.4
20260506080507 15 185 9.7 20.9 0.00 0.00 0.00 79 1009.5
20260506073514 15 177 4.8 17.7 0.00 0.00 0.00 78 1009.5
20260506073024 15 200 8.0 16.1 0.00 0.00 0.00 78 1009.5
20260506072509 15 207 8.0 14.5 0.00 0.00 0.00 77 1009.6
20260506072015 15 174 6.4 14.5 0.00 0.00 0.00 77 1009.5
20260506071508 15 186 6.4 16.1 0.00 0.00 0.00 77 1009.5
20260506071005 15 194 6.4 16.1 0.00 0.00 0.00 76 1009.4
20260506070503 15 187 8.0 16.1 0.00 0.00 0.00 76 1009.4
20260506062507 16 202 11.3 16.1 0.00 0.00 0.00 72 1009.0
20260506062011 16 184 8.0 16.1 0.00 0.00 0.00 72 1009.1
20260506061525 16 156 6.4 16.1 0.00 0.00 0.00 71 1009.1
20260506061010 16 193 8.0 14.5 0.00 0.00 0.00 71 1009.1
20260506060503 16 181 6.4 14.5 0.00 0.00 0.00 71 1009.1
20260506051008 16 154 8.0 22.5 0.00 0.00 0.00 68 1009.3
20260506050509 16 186 11.3 20.9 0.00 0.00 0.00 68 1009.2
20260506045005 16 180 6.4 17.7 0.00 0.00 0.00 68 1009.4
20260506044517 16 201 4.8 19.3 0.00 0.00 0.00 67 1009.3
20260506044008 16 193 8.0 19.3 0.00 0.00 0.00 67 1009.3
20260506043511 16 205 6.4 19.3 0.00 0.00 0.00 67 1009.3
20260506043016 17 159 9.7 19.3 0.00 0.00 0.00 67 1009.3
20260506042508 17 192 9.7 17.7 0.00 0.00 0.00 67 1009.3
20260506042012 17 202 8.0 17.7 0.00 0.00 0.00 67 1009.3
20260506041524 17 200 8.0 19.3 0.00 0.00 0.00 66 1009.4
20260506041010 17 168 8.0 19.3 0.00 0.00 0.00 66 1009.5
20260506040511 17 216 4.8 16.1 0.00 0.00 0.00 66 1009.4
20260506040024 17 186 4.8 20.9 0.00 0.00 0.00 66 1009.4
20260506035509 17 152 9.7 20.9 0.00 0.00 0.00 66 1009.4
20260506035010 17 185 6.4 22.5 0.00 0.00 0.00 66 1009.4
20260506034511 17 144 9.7 22.5 0.00 0.00 0.00 65 1009.3
20260506034009 17 176 11.3 22.5 0.00 0.00 0.00 65 1009.4
20260506033506 17 195 9.7 19.3 0.00 0.00 0.00 65 1009.4
20260506033016 17 205 9.7 22.5 0.00 0.00 0.00 65 1009.4
20260506032509 17 161 11.3 22.5 0.00 0.00 0.00 65 1009.5
20260506032011 17 165 8.0 17.7 0.00 0.00 0.00 64 1009.5
20260506031522 17 185 8.0 17.7 0.00 0.00 0.00 64 1009.4
20260506031008 17 170 4.8 22.5 0.00 0.00 0.00 64 1009.6
20260506030509 17 177 12.9 22.5 0.00 0.00 0.00 63 1009.5
20260506030022 17 173 9.7 20.9 0.00 0.00 0.00 63 1009.6
20260506025513 17 150 6.4 24.1 0.00 0.00 0.00 63 1009.5
20260506025010 17 208 9.7 24.1 0.00 0.00 0.00 63 1009.5
20260506024526 17 163 6.4 17.7 0.00 0.00 0.00 62 1009.4
20260506024011 17 173 8.0 19.3 0.00 0.00 0.00 62 1009.4
20260506023511 17 196 9.7 19.3 0.00 0.00 0.00 62 1009.3
20260506023013 18 225 6.4 19.3 0.00 0.00 0.00 61 1009.3
20260506022505 18 132 9.7 17.7 0.00 0.00 0.00 61 1009.3
20260506022008 18 200 8.0 20.9 0.00 0.00 0.00 61 1009.3
20260506021519 18 175 8.0 20.9 0.00 0.00 0.00 61 1009.1
20260506021008 18 224 9.7 19.3 0.00 0.00 0.00 61 1009.2
20260506020508 18 181 8.0 19.3 0.00 0.00 0.00 61 1009.1
20260506020030 18 174 8.0 19.3 0.00 0.00 0.00 60 1009.0
20260506015509 18 178 9.7 19.3 0.00 0.00 0.00 60 1009.0
20260506015013 18 119 8.0 19.3 0.00 0.00 0.00 61 1009.0
20260506014525 18 168 11.3 19.3 0.00 0.00 0.00 61 1009.0
20260506014010 18 167 9.7 14.5 0.00 0.00 0.00 60 1009.0
20260506013511 18 177 8.0 14.5 0.00 0.00 0.00 60 1009.0
20260506013030 18 175 8.0 17.7 0.00 0.00 0.00 60 1008.9
20260506012509 18 185 6.4 19.3 0.00 0.00 0.00 60 1008.9
20260506012007 19 159 9.7 25.7 0.00 0.00 0.00 59 1008.8
20260506011516 19 181 6.4 25.7 0.00 0.00 0.00 59 1008.8
20260506011007 19 188 9.7 27.4 0.00 0.00 0.00 58 1008.8
20260506010507 19 209 11.3 25.7 0.00 0.00 0.00 58 1008.7
20260506010025 19 206 8.0 25.7 0.00 0.00 0.00 58 1008.7
20260506005511 20 179 9.7 25.7 0.00 0.00 0.00 57 1008.6
20260506005009 20 221 14.5 25.7 0.00 0.00 0.00 56 1008.6
20260506004525 20 191 12.9 27.4 0.00 0.00 0.00 56 1008.6
20260506004010 20 204 14.5 25.7 0.00 0.00 0.00 56 1008.6
20260506003513 20 179 12.9 22.5 0.00 0.00 0.00 56 1008.5
20260506003026 20 185 11.3 32.2 0.00 0.00 0.00 56 1008.4
20260506002510 20 186 12.9 32.2 0.00 0.00 0.00 55 1008.2
20260506002011 20 186 14.5 25.7 0.00 0.00 0.00 55 1008.2
20260506001528 20 182 9.7 24.1 0.00 0.00 0.00 55 1008.1
20260506001006 21 201 11.3 24.1 0.00 0.00 0.00 55 1008.0
20260506000508 21 210 12.9 27.4 0.00 0.00 0.00 54 1007.8
20260506000028 21 176 11.3 27.4 0.00 0.00 0.00 54 1007.7
20260505235511 21 211 9.7 27.4 0.00 0.00 0.00 54 1007.5
20260505235007 21 150 9.7 20.9 0.00 0.00 0.00 54 1007.4
20260505234524 21 184 11.3 24.1 0.00 0.00 0.00 53 1007.3
20260505234010 21 186 9.7 25.7 0.00 0.00 0.00 53 1007.2
20260505233509 21 229 14.5 25.7 0.00 0.00 0.00 53 1007.2
20260505233024 22 159 8.0 25.7 0.00 0.00 0.00 52 1007.1
20260505232508 22 153 14.5 27.4 0.00 0.00 0.00 52 1007.0
20260505232009 22 168 12.9 37.0 0.00 0.00 0.00 51 1006.9
20260505231529 22 170 19.3 37.0 0.00 0.00 0.00 51 1006.9
20260505231010 22 186 16.1 25.7 0.00 0.00 0.00 50 1006.8
20260505230510 22 153 11.3 37.0 0.00 0.00 0.00 50 1006.7
20260505230029 22 180 9.7 37.0 0.00 0.00 0.00 49 1006.7
20260505225508 22 225 20.9 37.0 0.00 0.00 0.00 49 1006.6
20260505225007 23 144 12.9 29.0 0.00 0.00 0.00 49 1006.6
20260505224524 23 194 11.3 33.8 0.00 0.00 0.00 48 1006.6
20260505224008 23 190 9.7 35.4 0.00 0.00 0.00 48 1006.5
20260505223509 23 148 16.1 35.4 0.00 0.00 0.00 47 1006.5
20260505223026 23 168 14.5 33.8 0.00 0.00 0.00 48 1006.4
20260505222513 24 191 11.3 35.4 0.00 0.00 0.00 46 1006.3
20260505222015 24 159 16.1 35.4 0.00 0.00 0.00 46 1006.2
20260505221528 24 360 19.3 33.8 0.00 0.00 0.00 45 1006.2
20260505221012 24 181 14.5 35.4 0.00 0.00 0.00 45 1006.1
20260505220510 25 145 20.9 35.4 0.00 0.00 0.00 45 1006.1
20260505220027 25 194 20.9 37.0 0.00 0.00 0.00 45 1006.1
20260505215507 25 240 20.9 37.0 0.00 0.00 0.00 44 1006.0
20260505215006 25 168 14.5 37.0 0.00 0.00 0.00 44 1006.1
20260505214520 25 211 16.1 38.6 0.00 0.00 0.00 45 1005.8
20260505214009 25 188 22.5 38.6 0.00 0.00 0.00 44 1005.8
20260505213513 25 177 12.9 33.8 0.00 0.00 0.00 44 1005.6
20260505213027 25 210 17.7 33.8 0.00 0.00 0.00 44 1005.5
20260505212509 25 150 17.7 43.5 0.00 0.00 0.00 44 1005.5
20260505212013 26 223 25.7 43.5 0.00 0.00 0.00 43 1005.6
20260505211532 26 200 20.9 41.8 0.00 0.00 0.00 42 1005.6
20260505211008 26 271 19.3 37.0 0.00 0.00 0.00 43 1005.6
20260505210511 26 211 17.7 35.4 0.00 0.00 0.00 42 1005.7
20260505210027 26 213 14.5 45.1 0.00 0.00 0.00 43 1005.6
20260505205517 26 166 24.1 45.1 0.00 0.00 0.00 42 1005.7
20260505205011 26 174 16.1 37.0 0.00 0.00 0.00 43 1005.6
20260505204528 26 162 19.3 33.8 0.00 0.00 0.00 42 1005.5
20260505204008 26 168 11.3 27.4 0.00 0.00 0.00 42 1005.4
20260505203508 27 220 14.5 27.4 0.00 0.00 0.00 41 1005.4
20260505203020 26 184 9.7 35.4 0.00 0.00 0.00 43 1005.4
20260505202508 27 180 19.3 37.0 0.00 0.00 0.00 41 1005.4
20260505202012 26 209 16.1 37.0 0.00 0.00 0.00 41 1005.4
20260505201524 26 223 19.3 38.6 0.00 0.00 0.00 41 1005.5
20260505201010 26 189 20.9 38.6 0.00 0.00 0.00 40 1005.6
20260505200511 26 197 14.5 33.8 0.00 0.00 0.00 40 1005.6
20260505200028 27 198 20.9 40.2 0.00 0.00 0.00 40 1005.7
20260505195509 27 239 14.5 40.2 0.00 0.00 0.00 40 1005.6
20260505195010 27 205 14.5 41.8 0.00 0.00 0.00 40 1005.6
20260505194527 27 146 20.9 41.8 0.00 0.00 0.00 39 1005.5
20260505194012 27 250 19.3 40.2 0.00 0.00 0.00 41 1005.5
20260505193512 27 179 20.9 38.6 0.00 0.00 0.00 41 1005.4
20260505193022 27 175 20.9 33.8 0.00 0.00 0.00 40 1005.5
20260505192509 27 163 20.9 32.2 0.00 0.00 0.00 39 1005.6
20260505192009 27 213 11.3 45.1 0.00 0.00 0.00 40 1005.7
20260505191531 27 232 19.3 45.1 0.00 0.00 0.00 38 1005.7
20260505191008 27 159 16.1 41.8 0.00 0.00 0.00 41 1005.6
20260505190508 27 193 20.9 41.8 0.00 0.00 0.00 40 1005.7
20260505190026 27 214 16.1 45.1 0.00 0.00 0.00 40 1005.9
20260505185514 27 219 25.7 45.1 0.00 0.00 0.00 37 1006.0